User: anonymous   Login
Location: Unspecified
(0.0000°N, 0.0000°E)
Time: 01:54:48
(UTC+00:00)
Language:

STARLINK-35888 - Orbit

View from above orbital plane
View from above orbital plane
View from above satellite
View from above satellite

Ground track
Ground track

The orbit is defined by the following mean orbital elements,

1 67190U          26145.59099375 +.00000000 +00000-0 +32487-3 0 00008
2 67190  43.0004 236.6343 0001317 273.1066  86.9635 15.27586774    09
Epoch (UTC): 25 May 2026 14:11:01
Eccentricity: 0.0001317
inclination: 43.0004°
perigee height: 482 km
apogee height: 484 km
right ascension of ascending node: 236.6343°
argument of perigee: 273.1066°
revolutions per day: 15.27586774
mean anomaly at epoch: 86.9635°

The dashed part of the orbit path shows where the satellite is in the earth's shadow,  

DLR